WetterOnline ( https://www.wetteronline.at )

Wetter aktuell Trier

Aktuelles Wetter: Trier/Petrisberg (273m)

6-stündlich | Neueste Meldungen
Ortszeit Temperatur Wetter
Mo, 06.12. 7:00 0.6° C Nebel
Mo, 06.12. 1:00 1.7° C bedeckt
So, 05.12. 19:00 2.0° C leichter Regen
So, 05.12. 13:00 4.4° C bedeckt
So, 05.12. 7:00 2.6° C bewölkt
So, 05.12. 1:00 3.8° C bewölkt
Sa, 04.12. 19:00 4.7° C wolkig
Sa, 04.12. 13:00 3.3° C leichter Regen
Ortszeit Temperatur Wetter
Mo, 06.12. 9:30 0.5° C Nebel
Mo, 06.12. 9:10 0.6° C Nebel
Mo, 06.12. 9:00 0.4° C Nebel
Mo, 06.12. 8:50 0.4° C Nebel
Mo, 06.12. 8:40 0.2° C Nebel
Mo, 06.12. 8:30 0.4° C Nebel
Mo, 06.12. 8:00 0.4° C Nebel
Mo, 06.12. 7:30 0.6° C Nebel
Mo, 06.12. 7:00 0.6° C Nebel
Mo, 06.12. 6:30 0.8° C Nebel
Ortszeit Relative Feuchte Sichtweite
Mo, 06.12. 7:00 99% <100 m
Mo, 06.12. 1:00 96% 15 km
So, 05.12. 19:00 95% 16 km
So, 05.12. 13:00 80% 50 km
So, 05.12. 7:00 89% 45 km
So, 05.12. 1:00 83% 35 km
Sa, 04.12. 19:00 81% 50 km
Sa, 04.12. 13:00 98% 0.4 km
Ortszeit Relative Feuchte Sichtweite
Mo, 06.12. 9:30 99% 100 m
Mo, 06.12. 9:10 100% -
Mo, 06.12. 9:00 100% 100 m
Mo, 06.12. 8:50 100% -
Mo, 06.12. 8:40 100% -
Mo, 06.12. 8:30 100% <100 m
Mo, 06.12. 8:00 100% <100 m
Mo, 06.12. 7:30 99% <100 m
Mo, 06.12. 7:00 99% <100 m
Mo, 06.12. 6:30 99% 100 m
Ortszeit Niederschlagsmenge Niederschlagsart
Mo, 06.12. 7:00 0.3 l/m2 in 12 Std. Sprühregen
Mo, 06.12. 1:00 0.3 l/m2 in 6 Std. Regen
So, 05.12. 19:00 0.6 l/m2 in 12 Std. Regen
So, 05.12. 13:00 0.1 l/m2 in 6 Std. Regen
So, 05.12. 7:00 0.1 l/m2 in 12 Std. Regen
So, 05.12. 1:00 0.1 l/m2 in 6 Std. Regen
Sa, 04.12. 19:00 1 l/m2 in 12 Std. Regen
Sa, 04.12. 13:00 0.2 l/m2 in 6 Std. Regen
Ortszeit Niederschlagsmenge Niederschlagsart
Mo, 06.12. 9:30 0.0 l/m2 in 1 Std. -
Mo, 06.12. 9:10 keine Meldung -
Mo, 06.12. 9:00 0.0 l/m2 in 1 Std. -
Mo, 06.12. 8:50 keine Meldung -
Mo, 06.12. 8:40 keine Meldung -
Mo, 06.12. 8:30 0.0 l/m2 in 1 Std. -
Mo, 06.12. 8:00 0.0 l/m2 in 1 Std. -
Mo, 06.12. 7:30 0.0 l/m2 in 1 Std. -
Mo, 06.12. 7:00 0.0 l/m2 in 1 Std. Sprühregen
Mo, 06.12. 6:30 0.0 l/m2 in 1 Std. -
Ortszeit Stärke Spitze Richtung
km/h Bft. km/h Grad Sektor
Mo, 06.12. 7:00 2 1 9 30° NO
Mo, 06.12. 1:00 6 1 13 30° NO
So, 05.12. 19:00 9 2 37 220° SW
So, 05.12. 13:00 18 3 40 200° S
So, 05.12. 7:00 22 4 47 210° SW
So, 05.12. 1:00 20 4 39 230° SW
Sa, 04.12. 19:00 19 3 46 270° W
Sa, 04.12. 13:00 4 1 11 10° N
Ortszeit Stärke Spitze Richtung
km/h Bft. km/h Grad Sektor
Mo, 06.12. 9:30 6 1 9 350° N
Mo, 06.12. 9:10 6 1 - 350° N
Mo, 06.12. 9:00 7 2 11 30° NO
Mo, 06.12. 8:50 7 2 - 30° NO
Mo, 06.12. 8:40 7 2 - 80° O
Mo, 06.12. 8:30 4 1 7 90° O
Mo, 06.12. 8:00 4 1 11 130° SO
Mo, 06.12. 7:30 4 1 7 130° SO
Mo, 06.12. 7:00 2 1 6 30° NO
Mo, 06.12. 6:30 4 1 4 130° SO
Ortszeit Untergrenze Bedeckung Gattung
total tief tief mittel hoch
Mo, 06.12. 7:00 <30 m 8/8 0/8 - - -
Mo, 06.12. 1:00 1500 m 8/8 8/8 - - -
So, 05.12. 19:00 180 m 8/8 8/8 - - -
So, 05.12. 13:00 690 m 8/8 8/8 - - -
So, 05.12. 7:00 390 m 7/8 7/8 - - -
So, 05.12. 1:00 480 m 7/8 7/8 - - -
Sa, 04.12. 19:00 630 m 6/8 6/8 - - -
Sa, 04.12. 13:00 <30 m 8/8 0/8 - - -
Ortszeit Bedeckungsgrad in Achtel und Wolkenuntergrenze
Mo, 06.12. 9:30 8(<30m)
Mo, 06.12. 9:10 8(<30m)
Mo, 06.12. 9:00 8(<30m)
Mo, 06.12. 8:50 8(<30m)
Mo, 06.12. 8:40 8(<30m)
Mo, 06.12. 8:30 8(<30m)
Mo, 06.12. 8:00 8(<30m)
Mo, 06.12. 7:30 8(<30m)
Mo, 06.12. 7:00 8(<30m)
Mo, 06.12. 6:30 8(<30m)
Ortszeit Luftdruck NN (hPa) Tendenz (hPa in 3 Std.)
Mo, 06.12. 7:00 1015 + 2,0
Mo, 06.12. 1:00 1011 + 2,1
So, 05.12. 19:00 1007 + 2,3
So, 05.12. 13:00 1003 + 0,2
So, 05.12. 7:00 1002 - 0,5
So, 05.12. 1:00 1004 + 1,3
Sa, 04.12. 19:00 1000 + 4,1
Sa, 04.12. 13:00 996 - 2,7
Ortszeit Luftdruck NN (hPa) Tendenz (hPa in 3 Std.)
Mo, 06.12. 9:30 1017 + 1,9
Mo, 06.12. 9:10 1017 keine Meldung
Mo, 06.12. 9:00 1017 + 2,2
Mo, 06.12. 8:50 1017 keine Meldung
Mo, 06.12. 8:40 1016 keine Meldung
Mo, 06.12. 8:30 1016 + 1,9
Mo, 06.12. 8:00 1016 + 1,8
Mo, 06.12. 7:30 1015 + 1,8
Mo, 06.12. 7:00 1015 + 2,0
Mo, 06.12. 6:30 1015 + 1,7
Ortszeit Schneehöhe (cm)
Mo, 06.12. 7:00 0
Mo, 06.12. 1:00 0
So, 05.12. 19:00 0
So, 05.12. 13:00 0
So, 05.12. 7:00 0
So, 05.12. 1:00 0
Sa, 04.12. 19:00 0
Sa, 04.12. 13:00 0
Ortszeit Schneehöhe (cm)
Mo, 06.12. 9:30 0
Mo, 06.12. 9:10 0
Mo, 06.12. 9:00 0
Mo, 06.12. 8:50 0
Mo, 06.12. 8:40 0
Mo, 06.12. 8:30 0
Mo, 06.12. 8:00 0
Mo, 06.12. 7:30 0
Mo, 06.12. 7:00 0
Mo, 06.12. 6:30 0
Link zu dieser Seite / Seite empfehlen

Das Wetter in ...